Time,TemperatureF,DewpointF,PressureIn,WindDirection,WindDirectionDegrees,WindSpeedMPH,WindSpeedGustMPH,Humidity,HourlyPrecipIn,Conditions,Clouds,dailyrainin,SoftwareType,DateUTC
2013-09-02 00:01:00,69.3,66.5,30.02,East,86,0.0,0.0,91,0.00,BKN,BKN,0.00,WeatherDisplay:10.34,2013-09-02 04:01:00,
2013-09-02 00:03:00,69.3,66.5,30.02,East,86,0.0,0.0,91,0.00,BKN,BKN,0.00,WeatherDisplay:10.34,2013-09-02 04:03:00,
2013-09-02 00:04:00,69.3,66.5,30.02,East,86,0.0,0.0,91,0.00,BKN,BKN,0.00,WeatherDisplay:10.34,2013-09-02 04:04:00,
2013-09-02 00:05:00,69.3,66.5,30.02,East,86,0.0,0.0,91,0.00,BKN,BKN,0.00,WeatherDisplay:10.34,2013-09-02 04:05:00,
2013-09-02 00:07:00,69.3,66.5,30.02,East,86,0.0,0.0,91,0.00,BKN,BKN,0.00,WeatherDisplay:10.34,2013-09-02 04:07:00,
2013-09-02 00:13:00,69.1,66.3,30.02,East,86,0.0,0.0,91,0.00,BKN,BKN,0.00,WeatherDisplay:10.34,2013-09-02 04:13:00,
2013-09-02 00:18:00,69.1,66.3,30.02,East,86,0.0,0.0,91,0.00,BKN,BKN,0.00,WeatherDisplay:10.34,2013-09-02 04:18:00,
2013-09-02 00:23:00,69.1,66.3,30.02,East,86,0.0,0.0,91,0.00,BKN,BKN,0.00,WeatherDisplay:10.34,2013-09-02 04:23:00,
2013-09-02 00:25:00,69.1,66.3,30.02,East,86,0.0,0.0,91,0.00,BKN,BKN,0.00,WeatherDisplay:10.34,2013-09-02 04:25:00,
2013-09-02 00:30:00,69.1,66.3,30.02,East,86,0.0,0.0,91,0.00,BKN,BKN,0.00,WeatherDisplay:10.34,2013-09-02 04:30:00,
2013-09-02 00:35:00,69.1,66.3,30.02,East,86,0.0,0.0,91,0.00,BKN,BKN,0.00,WeatherDisplay:10.34,2013-09-02 04:35:00,
2013-09-02 00:40:00,69.1,66.3,30.02,East,86,0.0,0.0,91,0.00,BKN,BKN,0.00,WeatherDisplay:10.34,2013-09-02 04:40:00,
2013-09-02 00:45:00,69.1,66.3,30.02,East,86,0.0,0.0,91,0.00,BKN,BKN,0.00,WeatherDisplay:10.34,2013-09-02 04:45:00,
2013-09-02 00:50:00,69.1,66.3,30.02,East,86,0.0,0.0,91,0.00,BKN,BKN,0.00,WeatherDisplay:10.34,2013-09-02 04:50:00,
2013-09-02 00:56:00,69.1,66.3,30.02,East,86,0.0,0.0,91,0.00,BKN,BKN,0.00,WeatherDisplay:10.34,2013-09-02 04:56:00,
2013-09-02 01:01:00,69.1,66.3,30.02,East,86,0.0,0.0,91,0.00,BKN,BKN,0.00,WeatherDisplay:10.34,2013-09-02 05:01:00,
2013-09-02 01:06:00,68.9,66.2,30.02,East,86,0.0,0.0,91,0.00,OVC,OVC,0.00,WeatherDisplay:10.34,2013-09-02 05:06:00,
2013-09-02 01:11:00,68.9,66.2,30.02,East,86,0.0,0.0,91,0.00,OVC,OVC,0.00,WeatherDisplay:10.34,2013-09-02 05:11:00,
2013-09-02 01:17:00,68.9,66.2,30.02,East,86,0.0,0.0,91,0.00,OVC,OVC,0.00,WeatherDisplay:10.34,2013-09-02 05:17:00,
2013-09-02 01:23:00,68.9,66.5,30.02,East,87,0.0,0.0,92,0.00,OVC,OVC,0.00,WeatherDisplay:10.34,2013-09-02 05:23:00,
2013-09-02 01:28:00,68.9,66.5,29.99,East,87,0.0,0.0,92,0.00,OVC,OVC,0.00,WeatherDisplay:10.34,2013-09-02 05:28:00,
2013-09-02 01:33:00,68.9,66.5,29.99,East,87,0.0,0.0,92,0.00,OVC,OVC,0.00,WeatherDisplay:10.34,2013-09-02 05:33:00,
2013-09-02 01:38:00,68.9,66.5,29.99,East,87,0.0,0.0,92,0.00,OVC,OVC,0.00,WeatherDisplay:10.34,2013-09-02 05:38:00,
2013-09-02 01:43:00,68.9,66.5,29.99,East,88,0.0,0.0,92,0.00,OVC,OVC,0.00,WeatherDisplay:10.34,2013-09-02 05:43:00,
2013-09-02 01:48:00,68.9,66.5,29.99,East,87,0.0,0.0,92,0.00,OVC,OVC,0.00,WeatherDisplay:10.34,2013-09-02 05:48:00,
2013-09-02 01:53:00,68.9,66.5,29.99,East,87,0.0,0.0,92,0.00,OVC,OVC,0.00,WeatherDisplay:10.34,2013-09-02 05:53:00,
2013-09-02 01:58:00,68.9,66.5,29.99,East,87,0.0,0.0,92,0.00,OVC,OVC,0.00,WeatherDisplay:10.34,2013-09-02 05:58:00,
2013-09-02 02:03:00,68.7,66.6,29.99,East,87,0.0,0.0,93,0.00,OVC,OVC,0.00,WeatherDisplay:10.34,2013-09-02 06:03:00,
2013-09-02 02:16:00,68.7,66.6,29.99,East,89,0.0,0.0,93,0.00,OVC,OVC,0.00,WeatherDisplay:10.34,2013-09-02 06:16:00,
2013-09-02 02:21:00,68.7,66.6,29.99,East,89,0.0,0.0,93,0.00,OVC,OVC,0.00,WeatherDisplay:10.34,2013-09-02 06:21:00,
2013-09-02 02:26:00,68.7,66.6,29.99,East,86,0.0,0.0,93,0.00,OVC,OVC,0.00,WeatherDisplay:10.34,2013-09-02 06:26:00,
2013-09-02 02:43:00,68.7,66.6,29.99,East,86,0.0,0.0,93,0.00,OVC,OVC,0.00,WeatherDisplay:10.34,2013-09-02 06:43:00,
2013-09-02 02:48:00,68.7,66.6,29.99,East,86,0.0,0.0,93,0.00,OVC,OVC,0.00,WeatherDisplay:10.34,2013-09-02 06:48:00,
2013-09-02 02:53:00,68.7,66.6,29.99,East,85,0.0,2.0,93,0.00,OVC,OVC,0.00,WeatherDisplay:10.34,2013-09-02 06:53:00,
2013-09-02 02:58:00,68.7,66.6,29.99,East,85,0.0,0.0,93,0.00,OVC,OVC,0.00,WeatherDisplay:10.34,2013-09-02 06:58:00,
2013-09-02 03:03:00,68.7,66.6,29.99,East,85,0.0,0.0,93,0.00,OVC,OVC,0.00,WeatherDisplay:10.34,2013-09-02 07:03:00,
2013-09-02 03:08:00,68.7,66.6,29.99,East,85,0.0,3.0,93,0.00,OVC,OVC,0.00,WeatherDisplay:10.34,2013-09-02 07:08:00,
2013-09-02 03:15:00,68.7,66.9,29.99,ENE,57,3.0,3.0,94,0.00,OVC,OVC,0.00,WeatherDisplay:10.34,2013-09-02 07:15:00,
2013-09-02 03:21:00,68.5,66.7,29.99,NNE,30,0.0,0.0,94,0.00,OVC,OVC,0.00,WeatherDisplay:10.34,2013-09-02 07:21:00,
2013-09-02 03:26:00,68.5,66.7,29.99,NNE,30,0.0,0.0,94,0.00,OVC,OVC,0.00,WeatherDisplay:10.34,2013-09-02 07:26:00,
2013-09-02 03:31:00,68.5,66.7,29.99,NNE,30,0.0,0.0,94,0.00,OVC,OVC,0.00,WeatherDisplay:10.34,2013-09-02 07:31:00,
2013-09-02 03:37:00,68.5,66.7,29.99,NNE,30,0.0,0.0,94,0.00,OVC,OVC,0.00,WeatherDisplay:10.34,2013-09-02 07:37:00,
2013-09-02 03:43:00,68.4,66.6,29.99,NNE,31,0.0,0.0,94,0.00,OVC,OVC,0.00,WeatherDisplay:10.34,2013-09-02 07:43:00,
2013-09-02 03:48:00,68.4,66.6,29.99,NNE,30,0.0,0.0,94,0.00,OVC,OVC,0.00,WeatherDisplay:10.34,2013-09-02 07:48:00,
2013-09-02 03:53:00,68.4,66.6,29.99,NNE,30,0.0,0.0,94,0.00,OVC,OVC,0.00,WeatherDisplay:10.34,2013-09-02 07:53:00,
2013-09-02 03:58:00,68.4,66.6,29.99,NNE,31,0.0,0.0,94,0.00,OVC,OVC,0.00,WeatherDisplay:10.34,2013-09-02 07:58:00,
2013-09-02 04:03:00,68.2,66.4,29.99,NNE,31,0.0,0.0,94,0.00,OVC,OVC,0.00,WeatherDisplay:10.34,2013-09-02 08:03:00,
2013-09-02 04:08:00,68.2,66.4,29.99,NNE,32,0.0,0.0,94,0.00,OVC,OVC,0.00,WeatherDisplay:10.34,2013-09-02 08:08:00,
2013-09-02 04:13:00,68.2,66.4,29.99,NNE,32,0.0,3.0,94,0.00,OVC,OVC,0.00,WeatherDisplay:10.34,2013-09-02 08:13:00,
2013-09-02 04:19:00,68.0,66.2,29.99,NE,34,0.0,0.0,94,0.00,OVC,OVC,0.00,WeatherDisplay:10.34,2013-09-02 08:19:00,
2013-09-02 04:24:00,68.0,66.2,29.99,NE,35,0.0,2.0,94,0.00,OVC,OVC,0.00,WeatherDisplay:10.34,2013-09-02 08:24:00,
2013-09-02 04:30:00,68.0,66.2,29.99,NE,36,0.0,3.0,94,0.00,OVC,OVC,0.00,WeatherDisplay:10.34,2013-09-02 08:30:00,
2013-09-02 04:35:00,68.0,66.2,29.99,NE,35,0.0,0.0,94,0.00,OVC,OVC,0.00,WeatherDisplay:10.34,2013-09-02 08:35:00,
2013-09-02 04:41:00,67.8,66.0,29.99,NE,35,0.0,0.0,94,0.00,OVC,OVC,0.00,WeatherDisplay:10.34,2013-09-02 08:41:00,
2013-09-02 04:47:00,67.8,66.0,29.99,NE,35,0.0,0.0,94,0.00,OVC,OVC,0.00,WeatherDisplay:10.34,2013-09-02 08:47:00,
2013-09-02 04:59:00,67.6,66.2,29.99,NE,35,0.0,0.0,95,0.00,OVC,OVC,0.00,WeatherDisplay:10.34,2013-09-02 08:59:00,
2013-09-02 05:05:00,67.6,66.2,29.99,NE,35,0.0,0.0,95,0.00,OVC,OVC,0.00,WeatherDisplay:10.34,2013-09-02 09:05:00,
2013-09-02 05:10:00,67.6,65.9,29.99,NE,35,0.0,0.0,94,0.00,OVC,OVC,0.00,WeatherDisplay:10.34,2013-09-02 09:10:00,
2013-09-02 05:15:00,67.6,65.9,29.99,NE,35,0.0,0.0,94,0.00,OVC,OVC,0.00,WeatherDisplay:10.34,2013-09-02 09:15:00,
2013-09-02 05:20:00,67.6,66.2,29.99,NE,35,0.0,0.0,95,0.00,OVC,OVC,0.00,WeatherDisplay:10.34,2013-09-02 09:20:00,
2013-09-02 05:26:00,67.6,66.2,29.99,NE,36,0.0,0.0,95,0.00,OVC,OVC,0.00,WeatherDisplay:10.34,2013-09-02 09:26:00,
2013-09-02 05:31:00,67.6,66.2,29.99,NE,36,0.0,0.0,95,0.00,OVC,OVC,0.00,WeatherDisplay:10.34,2013-09-02 09:31:00,
2013-09-02 05:37:00,67.5,66.0,29.99,NE,42,0.0,0.0,95,0.00,OVC,OVC,0.00,WeatherDisplay:10.34,2013-09-02 09:37:00,
2013-09-02 05:42:00,67.5,66.0,29.99,NE,36,0.0,0.0,95,0.00,OVC,OVC,0.00,WeatherDisplay:10.34,2013-09-02 09:42:00,
2013-09-02 05:47:00,67.5,66.0,29.99,NE,37,0.0,0.0,95,0.00,OVC,OVC,0.00,WeatherDisplay:10.34,2013-09-02 09:47:00,
2013-09-02 05:52:00,67.5,66.0,29.99,NE,36,0.0,0.0,95,0.00,OVC,OVC,0.00,WeatherDisplay:10.34,2013-09-02 09:52:00,
2013-09-02 05:57:00,67.5,66.0,29.99,NE,35,0.0,0.0,95,0.00,OVC,OVC,0.00,WeatherDisplay:10.34,2013-09-02 09:57:00,
2013-09-02 06:02:00,67.5,66.0,29.99,NE,36,0.0,0.0,95,0.00,OVC,OVC,0.00,WeatherDisplay:10.34,2013-09-02 10:02:00,
2013-09-02 06:08:00,67.5,66.0,30.00,NE,38,0.0,0.0,95,0.00,OVC,OVC,0.00,WeatherDisplay:10.34,2013-09-02 10:08:00,
2013-09-02 06:14:00,67.5,66.0,29.96,NE,35,0.0,0.0,95,0.00,OVC,OVC,0.00,WeatherDisplay:10.34,2013-09-02 10:14:00,
2013-09-02 06:20:00,67.5,66.0,29.96,NE,36,0.0,0.0,95,0.00,OVC,OVC,0.00,WeatherDisplay:10.34,2013-09-02 10:20:00,
2013-09-02 06:25:00,67.5,66.0,29.96,NE,35,0.0,0.0,95,0.00,OVC,OVC,0.00,WeatherDisplay:10.34,2013-09-02 10:25:00,
2013-09-02 06:31:00,67.5,66.0,29.97,NE,36,0.0,0.0,95,0.00,OVC,OVC,0.00,WeatherDisplay:10.34,2013-09-02 10:31:00,
2013-09-02 06:36:00,67.5,66.0,29.97,NE,35,0.0,0.0,95,0.00,OVC,OVC,0.00,WeatherDisplay:10.34,2013-09-02 10:36:00,
2013-09-02 06:42:00,67.3,65.8,29.97,NE,38,0.0,0.0,95,0.00,OVC,OVC,0.00,WeatherDisplay:10.34,2013-09-02 10:42:00,
2013-09-02 06:47:00,67.3,65.8,29.97,NE,36,0.0,0.0,95,0.00,OVC,OVC,0.00,WeatherDisplay:10.34,2013-09-02 10:47:00,
2013-09-02 06:53:00,67.3,65.8,29.97,NE,37,0.0,0.0,95,0.00,OVC,OVC,0.00,WeatherDisplay:10.34,2013-09-02 10:53:00,
2013-09-02 06:58:00,67.3,65.8,29.97,NE,35,0.0,0.0,95,0.00,OVC,OVC,0.00,WeatherDisplay:10.34,2013-09-02 10:58:00,
2013-09-02 07:03:00,67.5,66.0,29.97,NE,35,0.0,0.0,95,0.00,OVC,OVC,0.00,WeatherDisplay:10.34,2013-09-02 11:03:00,
2013-09-02 07:08:00,67.5,66.0,29.97,NNE,23,0.0,0.0,95,0.00,OVC,OVC,0.00,WeatherDisplay:10.34,2013-09-02 11:08:00,
2013-09-02 07:13:00,67.5,66.0,29.97,NNE,23,0.0,0.0,95,0.00,OVC,OVC,0.00,WeatherDisplay:10.34,2013-09-02 11:13:00,
2013-09-02 07:18:00,67.5,66.0,29.97,NNE,23,0.0,0.0,95,0.00,OVC,OVC,0.00,WeatherDisplay:10.34,2013-09-02 11:18:00,
2013-09-02 11:29:00,66.2,65.0,29.97,NE,53,0.0,3.0,96,0.00,OVC,OVC,0.00,WeatherDisplay:10.34,2013-09-02 15:29:00,
2013-09-02 11:34:00,66.2,65.0,29.97,NE,51,0.0,0.0,96,0.00,OVC,OVC,0.00,WeatherDisplay:10.34,2013-09-02 15:34:00,
2013-09-02 11:39:00,66.0,64.8,29.97,NE,53,0.0,0.0,96,0.00,OVC,OVC,0.00,WeatherDisplay:10.34,2013-09-02 15:39:00,
2013-09-02 11:44:00,66.0,64.8,29.97,ENE,70,0.0,0.0,96,0.00,OVC,OVC,0.00,WeatherDisplay:10.34,2013-09-02 15:44:00,
2013-09-02 11:49:00,66.2,65.0,29.97,ENE,70,0.0,0.0,96,0.00,OVC,OVC,0.00,WeatherDisplay:10.34,2013-09-02 15:49:00,
2013-09-02 11:54:00,66.2,65.0,29.97,ENE,70,0.0,3.0,96,0.00,OVC,OVC,0.00,WeatherDisplay:10.34,2013-09-02 15:54:00,
2013-09-02 11:59:00,66.2,65.0,29.97,ENE,69,0.0,0.0,96,0.00,OVC,OVC,0.00,WeatherDisplay:10.34,2013-09-02 15:59:00,
2013-09-02 12:04:00,66.2,65.0,29.97,ENE,70,0.0,0.0,96,0.00,OVC,OVC,0.00,WeatherDisplay:10.34,2013-09-02 16:04:00,
2013-09-02 12:09:00,66.2,65.0,29.97,ENE,71,0.0,0.0,96,0.00,OVC,OVC,0.00,WeatherDisplay:10.34,2013-09-02 16:09:00,
2013-09-02 12:14:00,66.0,64.8,29.97,ENE,69,0.0,0.0,96,0.00,OVC,OVC,0.00,WeatherDisplay:10.34,2013-09-02 16:14:00,
2013-09-02 12:19:00,66.0,64.8,29.97,ENE,71,0.0,0.0,96,0.00,OVC,OVC,0.00,WeatherDisplay:10.34,2013-09-02 16:19:00,
2013-09-02 12:24:00,66.0,64.8,29.97,ENE,58,0.0,0.0,96,0.00,OVC,OVC,0.00,WeatherDisplay:10.34,2013-09-02 16:24:00,
2013-09-02 12:29:00,66.0,64.8,29.97,ENE,58,0.0,0.0,96,0.00,OVC,OVC,0.00,WeatherDisplay:10.34,2013-09-02 16:29:00,
2013-09-02 12:34:00,65.8,64.7,29.97,ENE,58,0.0,0.0,96,0.00,OVC,OVC,0.00,WeatherDisplay:10.34,2013-09-02 16:34:00,
2013-09-02 12:39:00,66.0,64.8,29.97,ENE,58,0.0,0.0,96,0.00,OVC,OVC,0.00,WeatherDisplay:10.34,2013-09-02 16:39:00,
2013-09-02 12:44:00,66.0,64.8,29.97,ENE,58,0.0,0.0,96,0.00,OVC,OVC,0.00,WeatherDisplay:10.34,2013-09-02 16:44:00,
2013-09-02 12:49:00,66.0,65.1,29.97,ENE,58,0.0,0.0,97,0.00,OVC,OVC,0.00,WeatherDisplay:10.34,2013-09-02 16:49:00,
2013-09-02 12:54:00,66.0,65.1,29.97,ENE,58,0.0,0.0,97,0.00,OVC,OVC,0.00,WeatherDisplay:10.34,2013-09-02 16:54:00,
2013-09-02 13:00:00,66.2,65.3,29.97,ENE,67,0.0,0.0,97,0.00,OVC,OVC,0.00,WeatherDisplay:10.34,2013-09-02 17:00:00,
2013-09-02 13:05:00,66.2,65.3,29.97,ENE,58,0.0,0.0,97,0.00,OVC,OVC,0.00,WeatherDisplay:10.34,2013-09-02 17:05:00,
2013-09-02 13:10:00,66.4,65.5,29.97,ENE,61,0.0,0.0,97,0.00,OVC,OVC,0.00,WeatherDisplay:10.34,2013-09-02 17:10:00,
2013-09-02 13:15:00,66.4,65.5,29.97,ENE,58,0.0,0.0,97,0.00,OVC,OVC,0.00,WeatherDisplay:10.34,2013-09-02 17:15:00,
2013-09-02 13:20:00,66.4,65.5,29.97,ENE,58,0.0,0.0,97,0.00,OVC,OVC,0.00,WeatherDisplay:10.34,2013-09-02 17:20:00,
2013-09-02 13:25:00,66.6,65.7,29.97,ENE,57,0.0,0.0,97,0.00,OVC,OVC,0.00,WeatherDisplay:10.34,2013-09-02 17:25:00,
2013-09-02 13:30:00,66.6,65.7,29.97,ENE,58,0.0,0.0,97,0.00,OVC,OVC,0.00,WeatherDisplay:10.34,2013-09-02 17:30:00,
2013-09-02 13:35:00,66.6,65.7,29.97,ENE,58,0.0,0.0,97,0.00,OVC,OVC,0.00,WeatherDisplay:10.34,2013-09-02 17:35:00,
2013-09-02 13:40:00,66.6,65.7,29.97,NE,55,0.0,0.0,97,0.00,OVC,OVC,0.00,WeatherDisplay:10.34,2013-09-02 17:40:00,
2013-09-02 13:45:00,66.4,65.5,29.97,NE,56,0.0,0.0,97,0.00,OVC,OVC,0.00,WeatherDisplay:10.34,2013-09-02 17:45:00,
2013-09-02 13:50:00,66.4,65.5,29.97,ENE,77,0.0,3.0,97,0.00,OVC,OVC,0.00,WeatherDisplay:10.34,2013-09-02 17:50:00,
2013-09-02 13:56:00,66.4,65.5,29.97,ENE,76,0.0,0.0,97,0.00,OVC,OVC,0.00,WeatherDisplay:10.34,2013-09-02 17:56:00,
2013-09-02 14:01:00,66.4,65.5,29.97,ENE,77,0.0,0.0,97,0.00,OVC,OVC,0.00,WeatherDisplay:10.34,2013-09-02 18:01:00,
2013-09-02 14:06:00,66.4,65.5,29.97,East,82,0.0,0.0,97,0.00,OVC,OVC,0.00,WeatherDisplay:10.34,2013-09-02 18:06:00,
2013-09-02 14:11:00,66.2,65.3,29.97,ENE,76,0.0,0.0,97,0.00,OVC,OVC,0.00,WeatherDisplay:10.34,2013-09-02 18:11:00,
2013-09-02 14:16:00,66.2,65.3,29.97,ENE,75,0.0,0.0,97,0.00,OVC,OVC,0.00,WeatherDisplay:10.34,2013-09-02 18:16:00,
2013-09-02 14:21:00,66.2,65.3,29.97,ENE,66,0.0,2.0,97,0.00,OVC,OVC,0.00,WeatherDisplay:10.34,2013-09-02 18:21:00,
2013-09-02 14:26:00,66.2,65.3,29.97,ENE,77,0.0,0.0,97,0.00,OVC,OVC,0.00,WeatherDisplay:10.34,2013-09-02 18:26:00,
2013-09-02 14:31:00,66.2,65.3,29.94,ENE,66,0.0,0.0,97,0.00,OVC,OVC,0.00,WeatherDisplay:10.34,2013-09-02 18:31:00,
2013-09-02 14:36:00,66.2,65.3,29.94,ENE,66,0.0,0.0,97,0.00,OVC,OVC,0.00,WeatherDisplay:10.34,2013-09-02 18:36:00,
2013-09-02 14:41:00,66.2,65.3,29.94,ENE,68,0.0,0.0,97,0.00,OVC,OVC,0.00,WeatherDisplay:10.34,2013-09-02 18:41:00,
2013-09-02 14:46:00,66.2,65.3,29.94,SSE,151,0.0,3.0,97,0.00,OVC,OVC,0.00,WeatherDisplay:10.34,2013-09-02 18:46:00,
2013-09-02 14:51:00,66.2,65.3,29.94,SSE,148,0.0,0.0,97,0.00,OVC,OVC,0.00,WeatherDisplay:10.34,2013-09-02 18:51:00,
2013-09-02 14:56:00,66.2,65.3,29.94,SSE,147,0.0,2.0,97,0.00,OVC,OVC,0.00,WeatherDisplay:10.34,2013-09-02 18:56:00,
2013-09-02 15:01:00,66.2,65.3,29.94,East,93,0.0,0.0,97,0.00,OVC,OVC,0.00,WeatherDisplay:10.34,2013-09-02 19:01:00,
2013-09-02 15:06:00,66.2,65.3,29.94,East,92,0.0,0.0,97,0.00,OVC,OVC,0.00,WeatherDisplay:10.34,2013-09-02 19:06:00,
2013-09-02 15:11:00,66.2,65.3,29.94,East,93,0.0,0.0,97,0.00,OVC,OVC,0.00,WeatherDisplay:10.34,2013-09-02 19:11:00,
2013-09-02 15:16:00,66.2,65.3,29.94,ESE,116,0.0,2.0,97,0.00,OVC,OVC,0.00,WeatherDisplay:10.34,2013-09-02 19:16:00,
2013-09-02 15:21:00,66.2,65.3,29.94,ESE,116,0.0,0.0,97,0.00,OVC,OVC,0.00,WeatherDisplay:10.34,2013-09-02 19:21:00,
2013-09-02 15:26:00,66.2,65.3,29.94,ESE,116,0.0,0.0,97,0.00,OVC,OVC,0.00,WeatherDisplay:10.34,2013-09-02 19:26:00,
2013-09-02 15:31:00,66.2,65.3,29.94,ENE,71,0.0,2.0,97,0.00,OVC,OVC,0.00,WeatherDisplay:10.34,2013-09-02 19:31:00,
2013-09-02 15:36:00,66.2,65.3,29.94,ENE,69,0.0,0.0,97,0.00,OVC,OVC,0.00,WeatherDisplay:10.34,2013-09-02 19:36:00,
2013-09-02 15:41:00,66.2,65.3,29.94,ENE,69,0.0,0.0,97,0.00,OVC,OVC,0.00,WeatherDisplay:10.34,2013-09-02 19:41:00,
2013-09-02 15:46:00,66.2,65.3,29.94,ENE,68,0.0,0.0,97,0.00,OVC,OVC,0.00,WeatherDisplay:10.34,2013-09-02 19:46:00,
2013-09-02 15:51:00,66.2,65.3,29.94,ENE,69,0.0,0.0,97,0.00,OVC,OVC,0.00,WeatherDisplay:10.34,2013-09-02 19:51:00,
2013-09-02 15:56:00,66.2,65.3,29.94,SE,142,0.0,0.0,97,0.00,OVC,OVC,0.00,WeatherDisplay:10.34,2013-09-02 19:56:00,
2013-09-02 16:01:00,66.2,65.3,29.94,SE,141,0.0,0.0,97,0.00,OVC,OVC,0.00,WeatherDisplay:10.34,2013-09-02 20:01:00,
2013-09-02 16:06:00,66.2,65.3,29.94,SE,135,0.0,3.0,97,0.00,OVC,OVC,0.00,WeatherDisplay:10.34,2013-09-02 20:06:00,
2013-09-02 16:11:00,66.2,65.3,29.94,SSE,155,0.0,0.0,97,0.00,OVC,OVC,0.00,WeatherDisplay:10.34,2013-09-02 20:11:00,
2013-09-02 16:16:00,66.0,65.1,29.94,SSE,154,0.0,0.0,97,0.00,OVC,OVC,0.00,WeatherDisplay:10.34,2013-09-02 20:16:00,
2013-09-02 16:21:00,66.0,65.1,29.94,SSE,154,0.0,0.0,97,0.00,OVC,OVC,0.00,WeatherDisplay:10.34,2013-09-02 20:21:00,
2013-09-02 16:26:00,66.2,65.3,29.94,SE,138,0.0,0.0,97,0.00,OVC,OVC,0.00,WeatherDisplay:10.34,2013-09-02 20:26:00,
2013-09-02 16:31:00,66.2,65.3,29.94,SE,139,0.0,0.0,97,0.00,OVC,OVC,0.00,WeatherDisplay:10.34,2013-09-02 20:31:00,
2013-09-02 16:36:00,66.2,65.3,29.94,SE,139,0.0,0.0,97,0.00,OVC,OVC,0.00,WeatherDisplay:10.34,2013-09-02 20:36:00,
2013-09-02 16:41:00,66.2,65.3,29.94,SE,138,0.0,0.0,97,0.00,OVC,OVC,0.00,WeatherDisplay:10.34,2013-09-02 20:41:00,
2013-09-02 16:46:00,66.4,65.5,29.91,SE,138,0.0,0.0,97,0.00,OVC,OVC,0.00,WeatherDisplay:10.34,2013-09-02 20:46:00,
2013-09-02 16:51:00,66.4,65.5,29.91,SE,138,0.0,0.0,97,0.00,OVC,OVC,0.00,WeatherDisplay:10.34,2013-09-02 20:51:00,
2013-09-02 16:56:00,66.4,65.5,29.91,SE,138,0.0,0.0,97,0.00,OVC,OVC,0.00,WeatherDisplay:10.34,2013-09-02 20:56:00,
2013-09-02 17:01:00,66.4,65.5,29.91,SE,137,0.0,0.0,97,0.00,OVC,OVC,0.00,WeatherDisplay:10.34,2013-09-02 21:01:00,
2013-09-02 17:06:00,66.4,65.5,29.91,SE,138,0.0,0.0,97,0.00,OVC,OVC,0.00,WeatherDisplay:10.34,2013-09-02 21:06:00,
2013-09-02 17:11:00,66.4,65.5,29.91,SE,137,0.0,0.0,97,0.00,OVC,OVC,0.00,WeatherDisplay:10.34,2013-09-02 21:11:00,
2013-09-02 17:16:00,66.4,65.5,29.91,SE,137,0.0,0.0,97,0.00,OVC,OVC,0.00,WeatherDisplay:10.34,2013-09-02 21:16:00,
2013-09-02 17:21:00,66.4,65.5,29.91,SE,136,0.0,3.0,97,0.00,OVC,OVC,0.00,WeatherDisplay:10.34,2013-09-02 21:21:00,
2013-09-02 17:26:00,66.4,65.5,29.91,SE,137,0.0,0.0,97,0.00,OVC,OVC,0.00,WeatherDisplay:10.34,2013-09-02 21:26:00,
2013-09-02 17:32:00,66.4,65.5,29.91,SE,138,0.0,0.0,97,0.00,OVC,OVC,0.00,WeatherDisplay:10.34,2013-09-02 21:32:00,
2013-09-02 17:37:00,66.2,65.3,29.91,ENE,76,0.0,3.0,97,0.00,OVC,OVC,0.00,WeatherDisplay:10.34,2013-09-02 21:37:00,
2013-09-02 17:42:00,66.2,65.3,29.91,ENE,70,0.0,0.0,97,0.00,OVC,OVC,0.00,WeatherDisplay:10.34,2013-09-02 21:42:00,
2013-09-02 17:47:00,66.4,65.5,29.91,ENE,71,0.0,0.0,97,0.00,OVC,OVC,0.00,WeatherDisplay:10.34,2013-09-02 21:47:00,
2013-09-02 17:52:00,66.4,65.5,29.91,ENE,70,0.0,0.0,97,0.00,OVC,OVC,0.00,WeatherDisplay:10.34,2013-09-02 21:52:00,
2013-09-02 17:57:00,66.4,65.5,29.91,ENE,71,0.0,0.0,97,0.00,OVC,OVC,0.00,WeatherDisplay:10.34,2013-09-02 21:57:00,
2013-09-02 18:02:00,66.4,65.5,29.91,ENE,71,0.0,0.0,97,0.00,OVC,OVC,0.00,WeatherDisplay:10.34,2013-09-02 22:02:00,
2013-09-02 18:07:00,66.4,65.5,29.91,ENE,71,0.0,0.0,97,0.00,OVC,OVC,0.00,WeatherDisplay:10.34,2013-09-02 22:07:00,
2013-09-02 18:12:00,66.4,65.5,29.91,ENE,71,0.0,0.0,97,0.00,OVC,OVC,0.00,WeatherDisplay:10.34,2013-09-02 22:12:00,
2013-09-02 18:17:00,66.4,65.5,29.91,ENE,72,0.0,0.0,97,0.00,OVC,OVC,0.00,WeatherDisplay:10.34,2013-09-02 22:17:00,
2013-09-02 18:22:00,66.4,65.5,29.91,ENE,72,0.0,0.0,97,0.00,OVC,OVC,0.00,WeatherDisplay:10.34,2013-09-02 22:22:00,
2013-09-02 18:27:00,66.4,65.5,29.91,ENE,72,0.0,0.0,97,0.00,OVC,OVC,0.00,WeatherDisplay:10.34,2013-09-02 22:27:00,
2013-09-02 18:32:00,66.4,65.5,29.91,ENE,72,0.0,0.0,97,0.00,OVC,OVC,0.00,WeatherDisplay:10.34,2013-09-02 22:32:00,
2013-09-02 18:37:00,66.4,65.5,29.91,ENE,71,0.0,0.0,97,0.00,OVC,OVC,0.00,WeatherDisplay:10.34,2013-09-02 22:37:00,
2013-09-02 18:42:00,66.4,65.5,29.91,ENE,71,0.0,0.0,97,0.00,OVC,OVC,0.00,WeatherDisplay:10.34,2013-09-02 22:42:00,
2013-09-02 18:47:00,66.4,65.5,29.91,ENE,72,0.0,0.0,97,0.00,OVC,OVC,0.00,WeatherDisplay:10.34,2013-09-02 22:47:00,
2013-09-02 18:52:00,66.2,65.3,29.91,ENE,74,0.0,0.0,97,0.00,OVC,OVC,0.00,WeatherDisplay:10.34,2013-09-02 22:52:00,
2013-09-02 18:57:00,66.2,65.3,29.91,ENE,76,0.0,0.0,97,0.00,OVC,OVC,0.00,WeatherDisplay:10.34,2013-09-02 22:57:00,
2013-09-02 19:02:00,66.2,65.3,29.91,ENE,76,0.0,0.0,97,0.00,OVC,OVC,0.00,WeatherDisplay:10.34,2013-09-02 23:02:00,
2013-09-02 19:07:00,66.2,65.3,29.91,ENE,75,0.0,0.0,97,0.00,OVC,OVC,0.00,WeatherDisplay:10.34,2013-09-02 23:07:00,
2013-09-02 19:12:00,66.2,65.3,29.91,ENE,75,0.0,0.0,97,0.00,OVC,OVC,0.00,WeatherDisplay:10.34,2013-09-02 23:12:00,
2013-09-02 19:17:00,66.2,65.3,29.91,ENE,75,0.0,0.0,97,0.00,OVC,OVC,0.00,WeatherDisplay:10.34,2013-09-02 23:17:00,
2013-09-02 19:22:00,66.2,65.3,29.91,ENE,75,0.0,0.0,97,0.00,OVC,OVC,0.00,WeatherDisplay:10.34,2013-09-02 23:22:00,
2013-09-02 19:27:00,66.2,65.3,29.91,ENE,75,0.0,0.0,97,0.00,OVC,OVC,0.00,WeatherDisplay:10.34,2013-09-02 23:27:00,
2013-09-02 19:32:00,66.2,65.3,29.91,ENE,75,0.0,0.0,97,0.00,OVC,OVC,0.00,WeatherDisplay:10.34,2013-09-02 23:32:00,
2013-09-02 19:37:00,66.2,65.3,29.91,ENE,77,0.0,0.0,97,0.00,OVC,OVC,0.00,WeatherDisplay:10.34,2013-09-02 23:37:00,
2013-09-02 19:42:00,66.2,65.3,29.91,ENE,77,0.0,0.0,97,0.00,OVC,OVC,0.00,WeatherDisplay:10.34,2013-09-02 23:42:00,
2013-09-02 19:47:00,66.2,65.3,29.91,ENE,77,0.0,0.0,97,0.00,OVC,OVC,0.00,WeatherDisplay:10.34,2013-09-02 23:47:00,
2013-09-02 19:52:00,66.2,65.3,29.91,ENE,77,0.0,0.0,97,0.00,OVC,OVC,0.00,WeatherDisplay:10.34,2013-09-02 23:52:00,
2013-09-02 19:57:00,66.2,65.3,29.91,ENE,75,0.0,0.0,97,0.00,OVC,OVC,0.00,WeatherDisplay:10.34,2013-09-02 23:57:00,
2013-09-02 20:02:00,66.2,65.3,29.91,ENE,75,0.0,0.0,97,0.00,OVC,OVC,0.00,WeatherDisplay:10.34,2013-09-03 00:02:00,
2013-09-02 20:07:00,66.2,65.3,29.91,ENE,75,0.0,0.0,97,0.00,OVC,OVC,0.00,WeatherDisplay:10.34,2013-09-03 00:07:00,
2013-09-02 20:12:00,66.0,65.1,29.91,ENE,75,0.0,0.0,97,0.00,OVC,OVC,0.00,WeatherDisplay:10.34,2013-09-03 00:12:00,
2013-09-02 20:17:00,66.0,65.1,29.91,ENE,75,0.0,0.0,97,0.00,OVC,OVC,0.00,WeatherDisplay:10.34,2013-09-03 00:17:00,
2013-09-02 20:22:00,66.0,65.1,29.91,ENE,75,0.0,0.0,97,0.00,OVC,OVC,0.00,WeatherDisplay:10.34,2013-09-03 00:22:00,
2013-09-02 20:28:00,66.0,65.1,29.91,ENE,75,0.0,0.0,97,0.00,OVC,OVC,0.00,WeatherDisplay:10.34,2013-09-03 00:28:00,
2013-09-02 20:33:00,65.8,65.0,29.91,ENE,75,0.0,0.0,97,0.00,OVC,OVC,0.00,WeatherDisplay:10.34,2013-09-03 00:33:00,
2013-09-02 20:38:00,65.8,65.0,29.91,ENE,75,0.0,0.0,97,0.00,OVC,OVC,0.00,WeatherDisplay:10.34,2013-09-03 00:38:00,
2013-09-02 20:43:00,65.8,65.0,29.91,ENE,75,0.0,0.0,97,0.00,OVC,OVC,0.00,WeatherDisplay:10.34,2013-09-03 00:43:00,
2013-09-02 20:48:00,65.8,65.0,29.91,ENE,75,0.0,0.0,97,0.00,OVC,OVC,0.00,WeatherDisplay:10.34,2013-09-03 00:48:00,
2013-09-02 20:53:00,65.7,64.8,29.91,ENE,75,0.0,0.0,97,0.00,OVC,OVC,0.00,WeatherDisplay:10.34,2013-09-03 00:53:00,
2013-09-02 20:58:00,65.7,64.8,29.91,ENE,75,0.0,0.0,97,0.00,OVC,OVC,0.00,WeatherDisplay:10.34,2013-09-03 00:58:00,
2013-09-02 21:03:00,65.7,64.8,29.91,ENE,75,0.0,0.0,97,0.00,OVC,OVC,0.00,WeatherDisplay:10.34,2013-09-03 01:03:00,
2013-09-02 21:08:00,65.7,64.8,29.91,ENE,75,0.0,0.0,97,0.00,OVC,OVC,0.00,WeatherDisplay:10.34,2013-09-03 01:08:00,
2013-09-02 21:13:00,65.7,64.8,29.91,ENE,75,0.0,0.0,97,0.00,OVC,OVC,0.00,WeatherDisplay:10.34,2013-09-03 01:13:00,
2013-09-02 21:18:00,65.7,64.8,29.91,ENE,75,0.0,0.0,97,0.00,OVC,OVC,0.00,WeatherDisplay:10.34,2013-09-03 01:18:00,
2013-09-02 21:23:00,65.7,64.8,29.91,ENE,75,0.0,0.0,97,0.00,OVC,OVC,0.00,WeatherDisplay:10.34,2013-09-03 01:23:00,
2013-09-02 21:28:00,65.7,64.8,29.91,ENE,75,0.0,0.0,97,0.00,OVC,OVC,0.00,WeatherDisplay:10.34,2013-09-03 01:28:00,
2013-09-02 21:33:00,65.7,64.8,29.91,ENE,75,0.0,0.0,97,0.00,OVC,OVC,0.00,WeatherDisplay:10.34,2013-09-03 01:33:00,
2013-09-02 21:38:00,65.7,64.8,29.91,ENE,75,0.0,0.0,97,0.00,OVC,OVC,0.00,WeatherDisplay:10.34,2013-09-03 01:38:00,
2013-09-02 21:43:00,65.7,64.8,29.91,ENE,75,0.0,0.0,97,0.00,OVC,OVC,0.00,WeatherDisplay:10.34,2013-09-03 01:43:00,
2013-09-02 21:48:00,65.7,64.8,29.91,ENE,75,0.0,0.0,97,0.00,OVC,OVC,0.00,WeatherDisplay:10.34,2013-09-03 01:48:00,
2013-09-02 22:00:00,65.7,64.8,29.91,ENE,75,0.0,0.0,97,0.00,OVC,OVC,0.00,WeatherDisplay:10.34,2013-09-03 02:00:00,
2013-09-02 22:07:00,65.7,64.8,29.91,ENE,75,0.0,0.0,97,0.00,OVC,OVC,0.00,WeatherDisplay:10.34,2013-09-03 02:07:00,
2013-09-02 22:12:00,65.7,64.8,29.91,ENE,75,0.0,0.0,97,0.00,OVC,OVC,0.00,WeatherDisplay:10.34,2013-09-03 02:12:00,
2013-09-02 22:17:00,65.7,64.8,29.91,ENE,75,0.0,0.0,97,0.00,OVC,OVC,0.00,WeatherDisplay:10.34,2013-09-03 02:17:00,
2013-09-02 22:23:00,65.7,64.8,29.91,ENE,75,0.0,0.0,97,0.00,OVC,OVC,0.00,WeatherDisplay:10.34,2013-09-03 02:23:00,
2013-09-02 22:28:00,65.7,64.8,29.91,ENE,75,0.0,0.0,97,0.00,OVC,OVC,0.00,WeatherDisplay:10.34,2013-09-03 02:28:00,
2013-09-02 22:33:00,65.7,64.8,29.91,ENE,75,0.0,0.0,97,0.00,OVC,OVC,0.00,WeatherDisplay:10.34,2013-09-03 02:33:00,
2013-09-02 22:38:00,65.7,64.8,29.91,ENE,75,0.0,0.0,97,0.00,OVC,OVC,0.00,WeatherDisplay:10.34,2013-09-03 02:38:00,
2013-09-02 22:43:00,65.7,64.8,29.91,ENE,75,0.0,0.0,97,0.00,OVC,OVC,0.00,WeatherDisplay:10.34,2013-09-03 02:43:00,
2013-09-02 22:48:00,65.7,64.8,29.91,ENE,75,0.0,0.0,97,0.00,OVC,OVC,0.00,WeatherDisplay:10.34,2013-09-03 02:48:00,
2013-09-02 22:53:00,65.5,64.6,29.91,ENE,75,0.0,0.0,97,0.00,OVC,OVC,0.00,WeatherDisplay:10.34,2013-09-03 02:53:00,
2013-09-02 22:58:00,65.5,64.6,29.91,ENE,75,0.0,0.0,97,0.00,OVC,OVC,0.00,WeatherDisplay:10.34,2013-09-03 02:58:00,
2013-09-02 23:03:00,65.5,64.6,29.91,ENE,75,0.0,0.0,97,0.00,OVC,OVC,0.00,WeatherDisplay:10.34,2013-09-03 03:03:00,
2013-09-02 23:08:00,65.5,64.6,29.91,ENE,75,0.0,0.0,97,0.00,OVC,OVC,0.00,WeatherDisplay:10.34,2013-09-03 03:08:00,
2013-09-02 23:13:00,65.5,64.6,29.91,ENE,75,0.0,0.0,97,0.00,OVC,OVC,0.00,WeatherDisplay:10.34,2013-09-03 03:13:00,
2013-09-02 23:19:00,65.5,64.6,29.91,ENE,75,0.0,0.0,97,0.00,OVC,OVC,0.00,WeatherDisplay:10.34,2013-09-03 03:19:00,
2013-09-02 23:24:00,65.5,64.6,29.91,ENE,75,0.0,0.0,97,0.00,OVC,OVC,0.00,WeatherDisplay:10.34,2013-09-03 03:24:00,
2013-09-02 23:29:00,65.5,64.6,29.88,ENE,75,0.0,0.0,97,0.00,OVC,OVC,0.00,WeatherDisplay:10.34,2013-09-03 03:29:00,
2013-09-02 23:34:00,65.5,64.6,29.88,ENE,75,0.0,0.0,97,0.00,OVC,OVC,0.00,WeatherDisplay:10.34,2013-09-03 03:34:00,
2013-09-02 23:40:00,65.5,64.6,29.88,ENE,75,0.0,0.0,97,0.00,OVC,OVC,0.00,WeatherDisplay:10.34,2013-09-03 03:40:00,
2013-09-02 23:45:00,65.5,64.6,29.91,ENE,75,0.0,0.0,97,0.00,OVC,OVC,0.00,WeatherDisplay:10.34,2013-09-03 03:45:00,
2013-09-02 23:50:00,65.5,64.6,29.91,ENE,75,0.0,0.0,97,0.00,OVC,OVC,0.00,WeatherDisplay:10.34,2013-09-03 03:50:00,
2013-09-02 23:55:00,65.5,64.6,29.91,ENE,75,0.0,0.0,97,0.00,OVC,OVC,0.00,WeatherDisplay:10.34,2013-09-03 03:55:00,